Wind_Speed
18 19 19 19 17 17 17 18 19 20 21 20 20 20 20 21 21 20 20 21 21 22 22 22 21 20 20 21 20 20 19 20 20 21 21 22 22 22 22 22 22 23
19 19 19 19 18 18 18 18 19 20 21 21 20 20 22 22 21 21 21 21 22 22 22 21 21 21 22 21 20 20 21 22 22 22 22 22 22 23 23 23 23 23
19 19 19 19 19 19 19 19 20 21 21 21 21 22 23 22 22 21 21 22 23 23 22 22 21 21 21 21 21 22 22 22 22 22 22 23 22 22 23 23 23 22
19 19 20 20 20 20 20 20 21 21 21 22 23 23 23 22 22 22 23 23 23 22 22 21 22 22 22 22 22 22 22 22 22 22 23 23 23 23 24 23 24 25
20 20 20 21 20 20 21 21 22 22 22 23 24 23 23 23 23 23 23 23 22 22 22 22 23 23 22 22 22 22 23 23 23 23 24 25 24 24 24 25 26 27
21 21 21 21 21 21 22 22 22 22 23 24 23 22 22 23 23 23 22 22 22 22 23 23 23 22 22 22 24 24 24 24 25 25 25 26 26 25 25 26 27 28
22 21 21 21 22 22 23 23 23 24 23 22 22 22 23 23 24 23 21 22 23 24 23 23 22 22 23 24 25 25 25 26 26 26 27 27 27 27 27 27 28 29
21 22 22 22 23 23 23 24 24 24 22 21 22 23 23 23 22 21 22 24 25 24 23 23 23 24 24 24 25 26 27 27 27 27 28 28 28 28 28 28 28 29
22 22 23 23 23 24 24 24 23 22 21 21 23 23 23 22 21 22 23 24 23 22 23 24 24 25 25 25 26 27 28 29 29 28 28 29 29 29 29 28 28 29
23 23 23 24 24 25 24 23 22 22 21 22 23 24 24 22 22 23 23 22 22 24 25 25 25 26 26 27 27 28 29 30 29 29 29 30 30 30 29 29 29 29
23 23 24 24 24 24 24 23 23 22 23 23 24 24 23 23 23 22 22 23 25 26 26 27 27 27 27 28 28 29 29 30 31 31 31 31 31 31 30 30 29 30
24 24 24 23 23 23 24 23 23 23 24 24 24 24 24 23 22 22 23 25 27 28 28 28 28 28 28 29 30 30 31 32 33 33 33 32 31 31 31 31 30 31
23 23 23 23 24 24 24 24 24 24 24 24 24 24 23 22 22 24 26 28 29 29 29 29 29 29 30 31 32 32 33 34 35 34 34 33 32 32 32 32 32 32
22 23 23 24 24 24 24 24 24 24 24 23 23 23 23 23 25 27 29 30 31 31 30 30 30 30 32 33 34 34 35 36 36 35 34 34 34 34 34 34 34 34
24 24 25 25 25 25 25 25 25 24 24 24 24 24 25 27 29 30 32 33 32 32 31 31 31 32 34 35 35 35 36 36 35 34 34 34 34 34 34 34 34 34
26 26 26 26 26 26 25 25 25 25 25 25 25 26 28 30 31 33 33 33 33 33 33 33 33 34 35 34 34 35 36 36 35 35 33 33 33 33 33 32 32 33
26 26 27 27 26 26 26 25 26 26 26 26 26 28 30 31 33 34 33 33 33 33 34 33 34 35 35 34 34 35 36 37 37 35 33 31 31 30 31 31 32 33
26 26 26 27 27 27 26 27 27 27 27 27 28 30 31 32 33 33 33 33 33 33 34 34 35 35 34 35 36 35 34 35 37 36 32 29 28 27 29 30 31 32
25 26 26 27 27 27 28 28 28 27 27 27 28 30 30 31 32 32 32 33 33 33 34 34 35 36 35 35 37 36 33 34 37 36 31 28 27 27 28 28 29 31
25 26 27 27 27 27 28 28 27 27 27 28 29 30 30 31 31 31 32 33 33 34 34 34 35 36 35 35 37 36 34 35 36 34 30 29 29 28 28 29 30 30
26 26 27 27 28 28 28 28 27 28 29 30 30 30 31 31 31 31 32 33 33 33 33 34 36 36 34 35 38 37 35 36 35 33 31 30 30 29 28 29 30 30
26 26 27 28 28 28 28 28 28 29 30 30 30 31 30 30 29 30 31 33 33 33 32 34 36 36 33 35 37 36 36 36 34 32 31 29 28 28 28 30 30 30
26 26 27 28 28 28 28 29 29 30 30 30 29 29 29 29 29 30 32 33 33 32 33 34 36 36 33 33 36 37 37 36 33 30 29 28 28 29 30 29 29 28
26 27 27 28 28 28 29 30 30 30 30 30 29 29 29 30 31 31 33 33 32 32 32 33 35 35 32 33 36 36 35 34 32 29 28 28 28 29 28 27 28 27
27 27 27 27 28 29 30 30 31 31 31 30 29 29 30 31 31 31 32 33 32 32 32 32 35 36 34 33 35 35 34 34 32 28 26 27 27 26 26 26 25 25
27 27 28 28 29 30 30 31 31 31 30 30 30 30 30 31 31 31 32 33 32 32 33 33 34 36 35 33 33 33 33 33 32 27 24 25 25 25 25 23 21 23
Wind_Direction
307 304 297 293 295 299 304 304 303 304 305 306 305 305 307 308 309 309 308 308 307 307 310 313 314 311 309 308 307 306 305 304 303 303 302 300 298 297 295 294 293 293
305 305 296 290 292 297 302 302 300 303 303 302 302 303 305 306 305 306 305 305 305 307 309 309 309 309 308 306 304 304 304 301 300 300 299 297 296 295 294 294 293 291
304 305 297 292 294 297 300 299 299 301 300 299 301 303 305 304 303 303 302 303 305 306 306 305 307 308 307 305 304 304 303 300 299 299 298 295 294 294 294 294 294 292
304 303 297 295 297 298 298 298 299 299 297 298 301 302 303 302 302 302 302 304 305 305 305 305 305 305 304 303 303 303 301 298 297 297 296 294 293 292 292 293 292 292
302 301 297 295 296 297 298 298 298 296 296 298 300 300 300 301 300 302 304 305 304 303 304 304 304 303 301 302 302 301 300 298 296 296 295 292 292 291 291 291 290 290
301 300 296 294 295 298 299 298 296 295 296 298 297 297 298 299 300 302 303 302 302 303 303 303 303 302 300 301 301 299 298 296 296 295 294 292 291 290 290 290 289 288
300 298 295 293 295 298 298 297 296 296 296 295 294 295 298 298 299 298 298 300 300 300 300 300 300 300 300 301 300 298 297 296 295 294 293 291 290 289 288 287 287 287
298 297 294 293 296 298 297 296 296 296 294 292 293 296 298 298 297 295 298 301 299 296 296 297 297 298 299 299 298 298 297 295 295 294 292 291 289 288 287 286 286 285
296 296 294 294 296 297 296 296 296 294 292 291 294 298 298 296 293 295 301 302 297 295 297 297 297 297 297 297 296 295 295 294 293 292 290 289 287 287 286 286 285 284
296 294 293 294 296 295 295 295 294 292 291 293 297 299 297 292 291 296 298 297 295 297 298 298 298 297 296 295 294 293 293 292 291 290 288 286 286 285 286 286 285 283
295 293 292 293 293 293 293 292 292 291 291 295 298 298 293 290 292 293 292 293 295 297 297 297 297 297 296 294 293 292 291 289 289 288 286 285 285 285 285 284 283 282
292 292 292 292 292 292 292 291 291 291 292 295 298 296 291 288 289 288 289 294 296 297 297 296 296 295 294 293 292 291 290 289 288 287 286 285 285 285 285 284 282 281
291 291 291 291 292 293 292 290 290 291 292 295 296 293 287 285 287 290 294 297 297 297 296 295 294 294 293 292 291 290 290 289 288 287 287 286 286 286 286 285 283 281
292 292 292 292 293 291 290 289 289 290 291 294 294 289 284 286 292 296 298 298 297 296 295 294 294 293 292 292 292 292 291 290 288 288 287 287 287 287 286 285 284 282
294 295 294 293 292 290 288 288 288 289 290 292 290 285 284 289 294 297 299 298 296 294 294 294 293 291 292 293 292 292 291 289 288 287 286 286 286 286 286 285 283 282
295 296 294 293 291 289 287 287 288 289 290 290 286 284 286 290 294 298 299 296 294 293 294 294 292 292 293 292 290 289 288 286 286 285 284 284 284 284 284 284 283 282
295 295 294 293 291 290 289 288 290 290 290 288 286 286 289 292 295 298 296 293 292 292 292 292 292 293 293 292 292 294 294 292 290 289 287 286 285 283 283 285 285 284
295 294 293 293 292 291 291 291 292 291 288 286 286 288 291 294 296 296 293 292 292 291 291 291 292 292 292 292 296 299 299 298 296 295 294 292 290 288 287 287 287 286
295 294 293 292 292 292 292 293 293 289 286 287 288 291 293 294 295 293 291 291 290 290 290 290 291 292 292 294 298 300 301 301 299 298 299 298 295 293 290 288 287 287
295 294 293 293 293 294 294 293 290 288 288 290 292 293 294 293 292 290 289 290 290 289 290 289 291 292 292 292 296 299 301 302 302 301 302 300 297 295 292 290 289 289
295 294 293 293 295 296 295 292 289 290 291 292 293 293 292 291 290 289 289 290 290 290 290 289 291 293 292 292 296 299 301 303 304 304 303 301 299 296 293 292 292 291
295 294 293 294 296 296 293 291 292 292 293 294 294 292 291 289 288 288 290 290 290 290 290 289 291 293 293 294 298 301 302 303 305 305 303 300 297 295 294 294 293 292
295 294 293 294 295 294 293 293 294 294 294 295 293 291 289 288 288 289 290 290 289 290 289 289 292 295 295 295 297 299 301 303 304 303 301 297 294 294 294 293 293 292
296 294 293 293 294 293 294 295 295 295 295 294 292 289 288 289 290 290 290 289 289 289 289 290 292 294 295 296 298 300 302 304 302 300 298 295 294 294 292 291 291 290
296 295 293 293 293 294 295 295 295 294 294 293 291 290 290 290 291 290 289 289 289 289 290 290 291 294 297 298 299 302 304 304 302 299 296 294 294 292 290 290 289 288
296 294 294 294 294 295 295 295 294 294 293 293 292 291 291 290 290 289 288 289 290 290 290 291 290 294 299 300 298 301 304 305 304 300 296 295 294 292 292 292 291 292
Height
878 877 875 873 871 870 869 868 867 866 865 864 863 861 860 859 858 857 855 854 853 851 850 849 848 847 846 845 844 843 842 841 839 838 837 836 834 833 832 831 831 830
876 875 873 871 870 868 867 867 866 864 863 862 861 860 858 857 856 855 854 852 851 850 849 848 847 846 845 843 842 841 840 838 837 836 835 833 832 831 830 829 828 827
874 873 871 869 868 866 865 864 863 862 861 860 859 857 856 855 854 853 852 850 849 848 847 846 845 844 843 841 840 839 837 836 834 833 832 831 830 829 827 827 826 824
871 870 869 867 866 864 863 862 861 860 859 857 856 855 854 853 852 850 849 848 847 846 845 844 843 842 840 839 838 836 835 833 832 831 829 828 827 826 825 824 823 822
868 868 866 865 864 862 861 860 858 858 856 855 854 853 852 851 849 848 847 846 845 844 843 841 840 839 838 837 835 834 832 831 829 828 826 825 824 823 822 821 820 818
865 865 864 863 862 860 859 858 856 855 854 853 852 851 850 848 847 846 845 844 843 841 840 839 838 837 835 834 833 831 830 828 826 825 823 822 821 820 819 818 816 815
863 862 861 860 859 858 857 855 854 853 851 850 849 848 847 846 845 844 843 842 840 839 838 836 835 834 833 832 830 828 826 825 823 822 820 819 817 816 816 815 813 811
860 859 858 857 856 855 854 853 851 850 849 848 847 846 845 844 842 841 840 839 838 836 835 834 832 831 830 829 827 825 823 821 820 818 817 815 814 812 812 811 809 808
857 856 856 854 853 852 851 850 849 848 846 845 844 843 842 841 840 839 838 837 835 834 832 831 830 828 827 826 824 822 820 818 817 815 813 812 810 809 808 807 806 804
854 854 853 851 850 849 848 847 846 845 844 842 841 840 839 838 837 836 835 834 832 831 829 828 827 825 824 822 821 819 817 815 813 812 810 808 807 805 804 803 802 800
851 851 850 848 847 846 845 844 843 842 841 839 838 837 836 835 834 833 832 831 829 828 826 825 823 822 820 819 817 815 813 811 809 808 806 805 803 802 800 799 798 796
849 848 847 845 844 843 842 841 840 839 838 836 836 835 833 832 831 830 829 828 826 825 823 821 820 819 817 815 813 811 809 807 805 803 802 800 799 797 796 795 794 792
846 845 844 842 841 840 839 838 837 836 835 834 833 832 831 829 828 827 826 824 823 821 820 818 817 815 813 811 809 807 805 803 800 799 797 795 794 793 792 790 789 788
843 842 841 840 839 837 836 835 834 833 832 831 830 829 828 827 825 824 822 821 819 818 816 815 813 811 809 807 804 802 800 798 796 794 792 791 789 787 787 786 784 783
840 839 838 837 835 834 833 832 830 830 829 828 827 826 825 824 822 821 819 817 815 814 813 811 809 807 805 803 800 797 795 793 791 790 788 786 784 783 781 781 779 778
837 836 834 833 832 831 830 829 827 827 825 825 824 823 822 820 819 817 815 813 812 810 808 807 805 803 801 799 796 793 791 789 787 786 784 782 780 778 777 776 775 773
834 833 831 830 829 827 826 825 824 823 822 821 820 819 818 817 815 813 812 810 808 806 804 803 801 799 796 794 791 789 787 786 783 781 780 778 776 774 772 771 770 768
830 829 828 826 825 824 823 822 821 820 819 818 817 815 814 813 811 809 807 806 804 802 800 798 796 794 792 789 786 784 783 781 779 777 776 774 772 770 768 766 765 763
827 826 824 823 822 821 820 819 817 816 815 814 813 812 810 808 807 805 803 802 800 798 796 794 792 790 788 785 782 779 778 776 775 774 771 770 768 766 764 762 760 759
824 823 821 820 819 818 816 815 814 813 811 810 809 808 806 804 803 801 799 798 796 794 792 790 788 786 784 781 777 775 774 772 771 770 767 765 763 762 760 758 756 755
821 819 818 816 815 814 813 811 810 809 808 806 805 803 802 800 798 797 795 793 791 790 788 786 783 782 780 777 773 771 770 768 767 765 763 761 759 757 756 754 752 751
817 816 814 813 812 811 809 808 807 805 804 802 801 799 798 796 795 793 791 789 787 786 784 781 779 778 776 773 769 766 765 764 763 761 759 757 755 753 752 750 748 747
814 813 811 810 808 807 806 804 803 801 800 798 797 795 794 792 791 789 787 785 783 782 780 777 775 773 772 769 765 762 761 761 759 757 755 753 751 749 747 745 744 743
811 809 808 806 805 804 802 800 799 798 796 795 793 791 790 788 787 785 783 781 779 777 776 774 771 769 769 766 762 758 757 757 756 754 751 749 746 744 743 741 740 738
807 806 804 803 801 800 799 797 795 794 792 791 790 788 786 784 783 781 778 776 775 773 772 770 767 765 764 763 758 754 753 753 752 750 747 745 742 740 738 737 735 734
804 802 801 799 798 796 795 793 791 790 788 787 785 784 782 780 778 776 774 772 771 769 768 766 763 761 760 759 755 751 749 749 748 746 744 741 739 736 734 732 731 729